�������r�C�����j�^�v���󋵏��
Date,Time,5�C6���@���p�r�C��,����,����(m/s)
2022/04/20,00:00,3.9,���쐼,0.9
2022/04/20,00:10,3.9,���쐼,1.5
2022/04/20,00:20,4.1,���쐼,0.6
2022/04/20,00:30,3.8,���쐼,0.6
2022/04/20,00:40,3.9,-,CALM
2022/04/20,00:50,4.0,�k��,0.6
2022/04/20,01:00,4.0,���쐼,0.9
2022/04/20,01:10,4.0,�쐼,0.6
2022/04/20,01:20,3.9,�쐼,0.6
2022/04/20,01:30,4.1,�쐼,1.4
2022/04/20,01:40,4.0,��쐼,1.4
2022/04/20,01:50,3.9,�쐼,0.6
2022/04/20,02:00,3.9,-,CALM
2022/04/20,02:10,4.0,-,CALM
2022/04/20,02:20,3.8,��,0.8
2022/04/20,02:30,4.1,-,CALM
2022/04/20,02:40,4.0,-,CALM
2022/04/20,02:50,3.8,-,CALM
2022/04/20,03:00,4.0,�k,0.9
2022/04/20,03:10,3.9,-,CALM
2022/04/20,03:20,3.8,�k�k��,0.9
2022/04/20,03:30,3.9,�k�k��,0.8
2022/04/20,03:40,4.0,�k�k��,0.6
2022/04/20,03:50,4.0,-,CALM
2022/04/20,04:00,3.8,-,CALM
2022/04/20,04:10,4.0,���k��,0.6
2022/04/20,04:20,4.0,-,CALM
2022/04/20,04:30,3.8,-,CALM
2022/04/20,04:40,4.1,���k��,0.6
2022/04/20,04:50,3.9,-,CALM
2022/04/20,05:00,4.0,-,CALM
2022/04/20,05:10,4.0,���k��,0.6
2022/04/20,05:20,4.0,���k��,0.6
2022/04/20,05:30,3.8,���쓌,0.6
2022/04/20,05:40,3.9,���쓌,0.6
2022/04/20,05:50,3.9,���쓌,0.6
2022/04/20,06:00,3.9,-,CALM
2022/04/20,06:10,4.1,���쓌,0.8
2022/04/20,06:20,4.0,���k��,1.4
2022/04/20,06:30,3.8,��,1.2
2022/04/20,06:40,3.9,�k�k��,1.2
2022/04/20,06:50,3.9,���k��,0.9
2022/04/20,07:00,3.9,�k��,1.2
2022/04/20,07:10,3.7,�k�k��,1.4
2022/04/20,07:20,3.8,�k��,1.2
2022/04/20,07:30,3.8,�k��,1.2
2022/04/20,07:40,3.9,���k��,1.5
2022/04/20,07:50,3.9,�k��,1.5
2022/04/20,08:00,3.7,���k��,0.9
2022/04/20,08:10,4.0,��,1.5
2022/04/20,08:20,3.8,��,2.0
2022/04/20,08:30,4.0,��,1.7
2022/04/20,08:40,4.0,��,1.7
2022/04/20,08:50,3.8,���쓌,2.3
2022/04/20,09:00,4.1,���쓌,1.9
2022/04/20,09:10,3.9,�쓌,1.7
2022/04/20,09:20,3.9,���쓌,2.5
2022/04/20,09:30,3.8,��,1.9
2022/04/20,09:40,3.9,���쓌,2.6
2022/04/20,09:50,3.8,�쓌,3.0
2022/04/20,10:00,3.9,�쓌,3.1
2022/04/20,10:10,3.9,���쓌,3.4
2022/04/20,10:20,4.0,�쓌,3.0
2022/04/20,10:30,3.8,�쓌,4.2
2022/04/20,10:40,3.9,�쓌,4.3
2022/04/20,10:50,4.0,�쓌,5.0
2022/04/20,11:00,3.9,�쓌,6.3
2022/04/20,11:10,4.0,�쓌,5.6
2022/04/20,11:20,4.1,�쓌,6.4
2022/04/20,11:30,3.9,�쓌,6.3
2022/04/20,11:40,3.8,�쓌,6.8
2022/04/20,11:50,3.9,�쓌,6.1
2022/04/20,12:00,3.8,�쓌,5.0
2022/04/20,12:10,3.9,�쓌,5.4
2022/04/20,12:20,4.1,�쓌,5.7
2022/04/20,12:30,3.8,�쓌,6.3
2022/04/20,12:40,4.1,��쓌,8.1
2022/04/20,12:50,3.9,��쓌,8.9
2022/04/20,13:00,4.0,��쓌,10.9
2022/04/20,13:10,4.0,��쓌,9.1
2022/04/20,13:20,3.7,��쓌,11.4
2022/04/20,13:30,4.0,��쓌,11.9
2022/04/20,13:40,3.8,��쓌,12.7
2022/04/20,13:50,3.9,��쓌,11.7
2022/04/20,14:00,3.9,��쓌,12.0
2022/04/20,14:10,3.9,��,12.7
2022/04/20,14:20,3.9,��쓌,13.2
2022/04/20,14:30,3.8,��쓌,12.5
2022/04/20,14:40,4.0,��쓌,11.7
2022/04/20,14:50,3.8,��쓌,11.3
2022/04/20,15:00,3.8,��,11.0
2022/04/20,15:10,3.9,��,10.8
2022/04/20,15:20,3.6,��쓌,11.0
2022/04/20,15:30,3.9,��,10.2
2022/04/20,15:40,3.9,��,9.9
2022/04/20,15:50,4.0,��,9.6
2022/04/20,16:00,3.8,��쓌,9.4
2022/04/20,16:10,3.9,��쓌,8.6
2022/04/20,16:20,4.0,��,8.0
2022/04/20,16:30,3.7,��,7.6
2022/04/20,16:40,4.0,��,8.1
2022/04/20,16:50,3.8,��,6.6
2022/04/20,17:00,3.8,��,6.9
2022/04/20,17:10,3.9,��,8.5
2022/04/20,17:20,4.0,��,8.5
2022/04/20,17:30,3.9,��,7.8
2022/04/20,17:40,3.9,��,8.9
2022/04/20,17:50,4.0,��,7.8
2022/04/20,18:00,3.9,��쓌,8.6
2022/04/20,18:10,4.1,��,8.2
2022/04/20,18:20,3.9,��,8.4
2022/04/20,18:30,3.9,��,8.5
2022/04/20,18:40,3.8,��,7.9
2022/04/20,18:50,3.8,��,6.6
2022/04/20,19:00,4.0,��,7.0
2022/04/20,19:10,4.0,��,7.4
2022/04/20,19:20,3.9,��,7.3
2022/04/20,19:30,3.8,��,6.4
2022/04/20,19:40,3.9,��,6.2
2022/04/20,19:50,4.0,��,6.0
2022/04/20,20:00,3.9,��,5.8
2022/04/20,20:10,3.8,��,5.9
2022/04/20,20:20,3.9,��,6.5
2022/04/20,20:30,4.0,��,5.3
2022/04/20,20:40,3.8,��,5.9
2022/04/20,20:50,3.9,��,5.9
2022/04/20,21:00,4.0,��,6.0
2022/04/20,21:10,4.1,��,5.7
2022/04/20,21:20,3.9,��,8.6
2022/04/20,21:30,3.9,��,7.9
2022/04/20,21:40,3.9,��,7.5
2022/04/20,21:50,4.0,��,7.4
2022/04/20,22:00,4.0,��쐼,7.4
2022/04/20,22:10,3.9,��쐼,6.7
2022/04/20,22:20,3.9,��,7.1
2022/04/20,22:30,4.0,��,7.6
2022/04/20,22:40,4.1,��,7.7
2022/04/20,22:50,3.8,��,7.9
2022/04/20,23:00,3.9,��쐼,8.3
2022/04/20,23:10,3.8,��,8.1
2022/04/20,23:20,3.9,��,8.4
2022/04/20,23:30,3.8,��,8.2
2022/04/20,23:40,3.9,��쐼,8.5
2022/04/20,23:50,3.7,��쐼,8.8
